This is the latest recevied weather packets stored in our database for station/object IW2NIA-3. If no packets are shown the sender has not sent any weather packets the latest 10 day(s).
| Time | Temp. | Humidity | Pressure | Rain* | Wind** | Luminosity | Snow |
|---|---|---|---|---|---|---|---|
| 1787586508 | 28.33° C | 59% | 1014.2 hPa | 0 mm | - | - | - |
| 1787585619 | 27.78° C | 60% | 1014.8 hPa | 0 mm | - | - | - |
| 1787584709 | 28.33° C | 59% | 1014.9 hPa | 0 mm | - | - | - |
| 1787583805 | 28.33° C | 59% | 1015 hPa | 0 mm | - | - | - |
| 1787582916 | 28.33° C | 58% | 1015.2 hPa | 0 mm | - | - | - |
| 1787582022 | 28.33° C | 58% | 1015.4 hPa | 0 mm | - | - | - |
| 1787581118 | 28.33° C | 56% | 1015.5 hPa | 0 mm | - | - | - |
| 1787580206 | 27.78° C | 56% | 1015.5 hPa | 0 mm | - | - | - |
| 1787579307 | 27.22° C | 57% | 1015.6 hPa | 0 mm | - | - | - |
| 1787578426 | 27.22° C | 59% | 1016 hPa | 0 mm | - | - | - |
| 1787577513 | 27.22° C | 61% | 1016.1 hPa | 0 mm | - | - | - |
| 1787576624 | 27.78° C | 61% | 1016.3 hPa | 0 mm | - | - | - |
| 1787575714 | 27.78° C | 59% | 1016.4 hPa | 0 mm | - | - | - |
| 1787574824 | 27.22° C | 59% | 1016.6 hPa | 0 mm | - | - | - |
| 1787573917 | 27.78° C | 58% | 1016.7 hPa | 0 mm | - | - | - |
| 1787573011 | 27.78° C | 63% | 1016.7 hPa | 0 mm | - | - | - |
| 1787572124 | 27.22° C | 63% | 1016.9 hPa | 0 mm | - | - | - |
| 1787571213 | 27.22° C | 62% | 1016.9 hPa | 0 mm | - | - | - |
| 1787570323 | 27.22° C | 61% | 1017.1 hPa | 0 mm | - | - | - |
| 1787569416 | 27.22° C | 61% | 1017.1 hPa | 0 mm | - | - | - |
| 1787568527 | 27.22° C | 63% | 1017.2 hPa | 0 mm | - | - | - |
| 1787567613 | 26.67° C | 63% | 1017.3 hPa | 0 mm | - | - | - |
| 1787566722 | 26.67° C | 64% | 1017.4 hPa | 0 mm | - | - | - |
| 1787565813 | 26.11° C | 65% | 1017.6 hPa | 0 mm | - | - | - |
| 1787564912 | 26.11° C | 67% | 1017.7 hPa | 0 mm | - | - | - |
* Rain latest hour (hover to see other rain measurements)
** Current wind speed in m/s (hover to see current wind gust speed)